Probability
0 0 0 0 0 0 0 0 2 5 8 11 16 21 26 30 32 37 45 50 53 57 59 52 47 42 37 32 29 27 23 19 18 18 16 11 9 8 8 11 12 13 13 12
0 0 0 0 0 0 0 0 2 6 11 16 21 28 32 33 35 41 50 55 59 61 59 55 50 45 40 34 30 26 23 19 17 16 14 11 9 8 9 12 12 11 10 9
0 0 0 0 0 0 1 1 3 9 17 24 30 37 41 41 43 50 57 63 65 63 59 56 52 47 42 36 29 25 22 19 17 15 12 11 10 10 13 15 14 12 9 8
0 0 0 0 0 2 4 6 9 17 27 33 38 43 48 52 55 57 59 63 65 62 57 54 51 47 43 37 29 23 20 18 17 15 14 13 12 13 15 16 16 14 12 11
0 0 0 1 1 3 7 12 19 28 36 40 42 44 50 57 60 58 56 57 59 57 54 54 52 50 44 37 29 23 20 17 17 17 17 17 15 14 14 14 14 13 12 12
0 0 0 1 2 4 10 18 28 37 44 48 48 51 55 60 61 57 54 54 53 52 53 57 56 51 44 36 29 24 22 20 18 18 18 16 15 13 12 10 9 8 8 9
1 0 2 4 6 12 21 31 39 47 53 57 60 62 61 61 60 55 52 52 50 48 51 55 54 49 44 38 30 26 25 22 18 16 13 11 10 10 8 7 5 5 5 6
4 7 13 18 20 27 37 44 47 51 56 59 60 58 55 55 52 48 44 43 42 43 46 50 49 46 43 38 32 28 25 21 17 13 9 7 7 6 5 4 3 3 4 4
17 23 31 34 35 38 41 44 46 48 50 50 47 42 40 41 41 38 34 32 32 35 40 43 42 41 37 32 29 26 23 19 15 11 7 6 5 4 3 3 3 2 2 2
32 36 40 40 39 36 34 37 42 43 41 40 37 33 31 29 29 29 28 28 29 32 34 34 31 29 26 23 22 21 18 15 12 9 6 5 4 3 2 2 1 1 1 1
33 35 37 36 34 31 31 35 40 39 35 33 32 31 28 23 21 23 25 26 27 28 26 23 19 18 18 17 17 16 13 10 7 5 3 2 1 1 1 1 0 0 0 0
23 26 28 28 28 27 28 32 34 33 30 29 29 28 24 19 17 17 19 21 22 21 20 17 15 14 15 14 13 11 9 7 4 2 1 0 0 0 0 0 0 0 0 0
16 18 20 21 22 22 23 23 23 24 25 26 26 23 19 16 14 12 12 13 15 16 16 15 14 14 13 11 9 7 6 4 2 1 0 0 0 0 0 0 0 0 0 0
12 14 15 16 16 14 13 12 12 14 17 20 21 18 14 11 10 7 6 7 9 11 12 11 11 11 10 8 7 6 4 3 2 1 0 0 0 0 0 0 0 0 0 0
8 9 9 8 8 6 5 5 6 8 10 12 14 12 9 7 6 4 2 2 4 6 8 8 7 6 6 5 4 3 3 2 2 2 1 0 0 0 0 0 0 0 0 0
6 5 4 3 2 1 2 3 3 4 6 8 9 8 6 5 4 2 0 0 1 4 6 7 5 3 2 2 1 1 1 1 2 2 1 0 0 0 0 0 0 0 0 0
5 4 3 3 2 1 2 2 2 3 6 7 7 5 4 4 3 1 0 0 1 3 5 5 4 3 1 0 0 0 0 0 1 1 0 0 0 0 0 0 0 0 0 0
3 3 3 4 3 2 1 2 2 3 6 7 5 4 2 1 1 0 0 0 1 3 4 4 3 3 1 0 0 0 0 0 0 0 0 0 0 0 0 0 0 0 0 0
3 4 4 4 3 2 1 2 3 4 5 5 3 2 0 0 0 0 0 0 1 2 3 2 2 2 1 0 0 0 0 0 0 0 0 0 0 0 0 0 0 0 0 0
4 4 5 3 2 1 1 2 4 5 3 2 1 0 0 0 0 0 0 0 1 1 1 1 1 1 0 0 0 0 0 0 0 0 0 0 0 0 0 0 0 0 0 0
3 4 3 2 1 1 1 3 4 3 1 0 0 0 0 0 0 0 0 0 0 0 0 0 0 0 0 0 0 0 0 0 0 0 0 0 0 0 0 0 0 0 0 0
3 3 2 1 0 1 1 1 2 1 0 0 0 0 0 0 0 0 0 0 0 0 0 0 0 0 0 0 0 0 0 0 0 0 0 0 0 0 0 0 0 0 0 0
3 2 1 0 0 0 0 0 0 0 0 0 0 0 0 0 0 0 0 0 0 0 0 0 0 0 0 0 0 0 0 0 0 0 0 0 0 0 0 0 0 0 0 0
2 1 0 0 0 0 0 0 0 0 0 0 0 0 0 0 0 0 0 0 0 0 0 0 0 0 0 0 0 0 0 0 0 0 0 0 0 0 0 0 0 0 0 0
1 0 0 0 0 0 0 0 0 0 0 0 0 0 0 0 0 0 0 0 0 0 0 0 0 0 0 0 0 0 0 0 0 0 0 0 0 0 0 0 0 0 0 0
0 0 0 0 0 0 0 0 0 0 0 0 0 0 0 0 0 0 0 0 0 0 0 0 0 0 0 0 0 0 0 0 0 0 0 0 0 0 0 0 0 0 0 0
0 0 0 0 0 0 0 0 0 0 0 0 0 0 0 0 0 0 0 0 0 0 0 0 0 0 0 0 0 0 0 0 0 0 0 0 0 0 0 0 0 0 0 0
Wind_Speed
15 14 12 13 15 16 16 13 9 5 5 6 7 8 7 7 9 10 10 9 9 9 8 7 7 6 6 6 6 5 5 5 5 4 4 4 4 3 4 3 3 3 3 3
15 15 13 12 14 14 15 13 11 6 2 1 5 7 9 9 7 7 9 9 10 9 9 8 7 6 6 6 6 5 5 5 5 5 5 4 4 4 5 4 4 5 5 5
12 13 13 14 13 12 11 11 10 6 7 6 7 7 8 9 8 7 8 7 8 8 7 7 6 6 6 6 6 5 5 5 6 6 6 5 5 5 6 6 6 6 7 7
12 12 15 11 9 9 8 8 5 7 9 10 8 7 6 6 8 8 7 7 6 7 7 7 7 7 7 7 6 6 6 6 6 6 6 6 6 6 6 6 6 6 7 7
10 12 13 10 7 7 6 4 4 8 10 10 11 10 8 8 9 8 7 6 5 5 7 7 6 7 7 7 7 6 6 6 6 7 7 7 7 7 6 7 7 7 7 7
11 11 11 7 5 4 5 5 4 8 9 9 8 5 6 7 10 10 9 7 5 5 7 7 6 6 7 7 6 6 6 6 6 7 7 8 8 7 7 7 8 7 8 8
14 13 7 4 3 4 6 3 5 7 8 7 5 6 9 9 9 9 8 7 7 6 6 6 7 7 7 7 7 7 7 8 8 8 8 8 8 7 8 8 9 8 9 8
13 14 7 1 2 1 3 5 7 8 9 10 11 11 10 9 8 8 7 7 7 7 7 6 7 7 8 8 7 8 9 9 8 8 8 8 9 8 8 8 9 8 8 8
5 2 5 7 8 7 5 5 6 8 8 10 10 9 8 7 7 7 7 6 7 8 8 7 6 7 9 8 8 10 10 10 9 9 8 8 8 8 7 6 6 7 7 7
3 6 7 8 8 7 6 5 6 6 6 8 9 7 7 6 6 6 6 6 6 8 8 7 7 8 9 9 10 11 11 10 9 9 9 9 7 6 5 5 6 6 6 7
3 6 7 7 7 6 5 5 6 7 7 6 7 7 7 6 5 5 5 5 6 7 9 9 8 8 8 9 10 11 11 10 10 10 10 10 10 9 8 7 6 6 6 6
2 3 3 6 7 5 4 6 7 7 8 7 7 7 7 6 5 5 5 6 7 8 9 9 9 9 8 8 9 11 11 9 8 8 8 9 10 11 18 14 18 17 13 10
4 4 5 6 7 6 6 7 7 6 7 7 6 6 6 6 5 6 6 8 8 9 9 9 9 9 8 8 8 9 10 9 8 8 8 9 8 9 10 12 17 17 14 13
4 5 5 6 6 6 6 7 6 6 6 6 6 7 7 7 7 7 8 9 9 10 10 10 10 9 8 9 10 10 10 10 9 8 8 8 8 8 8 9 8 8 9 10
1 3 5 6 6 5 5 6 6 6 7 7 7 7 8 9 9 8 8 9 10 10 10 10 10 10 8 9 10 10 9 7 7 8 7 8 8 8 8 9 8 8 6 5
3 5 6 6 6 5 6 7 7 6 7 8 8 9 9 10 10 9 9 9 10 11 10 10 10 9 8 9 9 8 8 11 9 7 7 7 7 8 8 8 8 7 6 5
4 5 6 6 6 6 6 6 7 6 7 8 9 10 10 10 10 10 9 9 10 10 9 9 9 9 8 8 8 7 7 8 9 7 7 7 7 7 7 7 7 6 6 5
3 5 5 6 6 6 7 7 7 8 8 9 10 10 10 10 10 10 10 11 10 10 9 9 8 8 8 8 6 7 7 6 6 6 6 6 6 6 6 7 7 7 7 5
6 7 7 7 7 7 8 8 8 9 10 10 11 10 10 10 10 10 10 10 10 10 8 8 9 8 8 7 7 6 6 7 6 6 6 7 6 6 6 6 7 6 6 5
7 8 9 9 8 9 8 9 10 11 10 11 11 11 10 10 9 10 10 8 7 7 8 8 7 7 7 6 5 5 6 7 7 7 6 5 5 5 5 6 6 6 6 4
8 9 10 9 9 9 10 11 11 11 11 10 10 11 11 10 9 9 9 9 8 7 8 7 5 5 5 4 3 4 6 6 6 6 5 5 5 5 5 5 5 5 5 4
8 9 10 10 11 10 10 11 11 11 11 10 11 11 11 10 10 9 8 7 7 7 6 5 5 5 4 3 3 4 6 6 5 5 4 4 4 4 4 5 4 4 4 4
8 9 10 11 12 12 12 11 11 11 11 10 10 10 10 8 7 8 7 6 6 5 3 4 6 7 4 1 2 4 5 5 4 4 4 4 4 4 4 5 4 4 4 3
10 10 11 11 12 12 12 11 10 9 9 9 9 9 8 7 7 7 7 7 7 6 5 6 7 6 2 1 2 4 4 4 3 3 4 4 4 4 4 4 4 4 4 3
10 11 11 11 10 9 10 10 10 10 10 8 9 8 6 6 6 7 7 9 9 8 7 6 4 2 2 2 3 3 3 3 3 2 3 3 3 3 3 3 3 3 3 3
9 8 8 8 7 7 7 7 7 7 7 7 6 6 6 6 8 7 7 9 9 7 6 5 5 4 3 3 3 3 4 5 4 3 3 3 3 3 2 2 2 2 2 3
9 7 6 7 6 6 6 7 7 7 6 6 7 7 7 7 6 7 7 7 7 6 5 5 5 4 3 3 3 3 3 3 3 3 3 3 2 2 2 2 2 1 2 2
Wind_Direction
259 261 248 228 224 223 224 237 246 242 211 189 156 145 142 139 136 139 140 140 137 136 132 135 138 146 149 147 143 144 146 145 139 135 126 129 128 125 116 118 129 113 107 101
248 256 256 251 232 229 221 222 231 222 191 166 143 138 142 143 143 145 143 144 141 140 141 145 145 148 141 135 133 134 137 134 127 125 122 120 121 115 107 101 96 95 91 88
252 246 249 249 242 237 226 220 226 211 166 163 141 141 145 146 150 148 137 133 138 140 137 138 143 146 142 134 132 132 130 124 122 123 118 112 115 107 103 98 91 87 85 86
250 249 245 245 239 244 237 222 195 148 150 152 139 130 122 131 127 117 120 121 124 135 136 140 142 137 132 134 133 133 128 123 121 120 117 113 108 103 98 97 96 93 92 91
245 245 245 247 245 247 235 223 162 140 134 130 125 121 104 106 109 110 112 110 110 121 129 129 129 130 136 136 133 132 128 123 121 124 122 119 112 106 103 100 94 91 88 86
243 245 241 249 276 287 222 199 112 120 125 131 147 145 117 104 108 105 102 100 101 108 112 115 115 119 123 123 118 116 115 114 113 116 117 114 111 108 103 98 94 89 84 81
240 248 240 261 276 285 243 162 93 98 110 118 110 90 110 104 96 97 98 99 96 94 102 107 114 116 113 109 108 107 103 100 100 103 106 106 104 102 104 102 98 92 88 80
233 243 237 50 156 124 65 67 82 84 90 89 90 95 103 103 101 101 102 101 101 95 93 94 104 112 112 108 108 108 106 104 102 99 101 103 103 101 104 109 107 103 98 87
216 203 85 73 83 85 80 78 82 80 85 100 101 102 104 105 107 105 106 102 102 103 97 90 92 103 110 109 108 106 102 100 99 96 92 98 105 110 112 111 111 112 108 101
118 125 106 91 88 86 82 76 86 93 100 108 114 118 114 111 109 104 99 100 105 110 107 97 92 94 103 108 110 111 108 103 100 95 88 79 74 75 83 95 107 111 109 108
139 126 111 87 75 66 69 80 82 89 94 102 111 117 116 113 110 106 103 100 99 104 106 103 100 98 103 111 114 112 107 103 98 92 91 81 71 60 66 56 72 98 104 106
109 93 97 100 83 63 74 75 81 89 99 103 110 116 113 105 100 103 101 102 103 105 108 106 103 99 100 107 114 115 112 108 103 103 101 99 95 78 58 66 66 67 76 91
76 73 93 94 80 63 72 77 80 86 92 98 103 109 107 102 95 94 100 103 104 105 105 104 101 97 98 102 105 108 112 112 110 110 111 110 108 106 98 74 65 62 68 81
70 96 102 91 81 65 72 80 75 78 82 89 96 101 104 103 100 99 99 104 104 104 103 103 102 97 97 101 103 104 107 111 114 115 117 115 113 112 111 109 100 83 67 73
136 125 120 115 111 111 104 101 97 87 83 84 90 97 104 107 105 103 104 108 109 106 105 104 103 103 106 111 111 112 113 115 114 116 118 118 119 119 115 112 110 110 111 95
135 121 126 124 119 119 116 110 106 102 100 100 99 97 100 104 105 106 107 111 113 111 111 111 111 115 117 114 113 109 105 113 119 123 124 126 126 125 122 122 123 126 129 131
169 155 143 136 125 114 106 102 106 106 110 110 110 109 107 108 108 108 107 106 105 109 114 117 119 121 123 122 118 115 116 120 124 126 127 128 129 129 129 130 129 130 130 134
145 131 123 117 114 112 106 104 108 111 111 112 113 113 113 114 114 114 116 116 112 110 111 115 118 121 120 119 118 123 126 133 136 130 130 131 134 137 137 135 133 130 133 147
123 119 113 109 109 108 104 104 108 108 109 110 111 110 109 111 113 114 114 114 114 113 112 115 121 122 123 127 129 133 141 142 133 128 124 127 134 133 132 134 137 141 144 148
107 112 114 109 107 111 113 112 112 110 111 112 112 110 108 108 113 116 112 104 102 110 118 120 123 122 131 139 147 147 142 134 130 128 130 141 139 137 143 145 145 142 141 140
112 112 112 114 111 110 110 111 112 113 115 116 115 114 113 113 113 114 114 108 106 114 119 122 126 132 140 142 164 138 129 124 124 129 139 145 140 144 142 139 139 140 141 141
115 114 115 115 114 112 111 110 112 113 115 116 117 117 118 119 117 109 100 106 122 130 138 140 137 125 119 140 152 135 131 131 133 137 144 143 142 143 139 139 144 146 145 147
113 113 115 116 115 113 112 113 114 115 116 118 119 120 118 114 115 114 112 116 129 139 135 120 114 108 99 158 140 125 125 130 136 141 144 147 149 148 149 154 156 152 148 155
111 112 112 112 111 112 114 116 118 117 118 117 118 120 123 121 117 112 113 116 114 123 111 109 117 113 112 141 118 116 122 133 139 145 149 150 149 153 159 167 165 160 160 170
110 113 114 115 114 113 115 118 120 123 121 118 122 126 123 119 120 119 120 121 125 126 122 124 126 131 172 159 139 131 132 125 128 142 151 155 163 164 162 163 162 170 175 180
109 110 111 112 114 120 124 126 125 125 125 128 130 127 120 117 118 123 131 136 137 138 139 147 163 188 192 163 144 150 148 145 156 171 174 165 164 162 158 170 189 194 187 188
111 113 114 115 120 121 122 122 121 121 119 122 121 118 121 124 128 132 133 138 147 155 155 164 170 180 185 171 165 171 167 166 174 176 170 163 165 176 180 189 212 215 211 202